Simultaneous Nadir Overpasses (SNOs) Predictions

Prediction of SNOs between NOAA-21 and METOP-C Satellite Orbit:

Table of predicted SNOs for the next 14.0 days since TLE Epoch: 7/16/2023
Index Date (NOAA-21) Time (NOAA-21) Lat,Lon (NOAA-21) SZA (NOAA-21 ) Date (METOP-C) Time (METOP-C) Lat,Lon (METOP-C) SZA (METOP-C ) Distance(km) Time Diff (sec)
1 07/29/2023 23:20:28 -73.51, -0.22 124.82 07/29/2023 23:21:34 -73.42, 2.72 125.09 93.29 66
2 07/30/2023 00:11:09 73.28, 167.60 54.94 07/30/2023 00:12:17 73.23, 169.62 54.75 64.88 68
3 07/30/2023 01:01:51 -73.17, -24.83 125.18 07/30/2023 01:03:01 -73.15, -23.23 125.31 51.48 70
4 07/30/2023 01:52:33 72.99, 142.87 54.63 07/30/2023 01:53:45 72.90, 143.58 54.48 25.05 72



Historial Predications of SNOs between NOAA-21 and METOP-C
